QPF
0.03 0.01 0.00 0.00 0.05 0.07 0.05 0.06 0.02 0.00 0.01 0.04 0.03 0.01 0.00 0.00 0.00 0.00 0.00 0.00 0.00 0.00 0.00 0.00 0.00 0.00 0.00 0.00 0.00 0.00 0.00 0.00 0.00 0.00 0.00 0.00 0.00 0.00 0.00 0.00 0.00 0.00 0.00 0.00
0.07 0.03 0.00 0.00 0.04 0.12 0.04 0.10 0.04 0.03 0.01 0.01 0.00 0.00 0.00 0.00 0.00 0.00 0.00 0.00 0.00 0.00 0.00 0.00 0.00 0.00 0.00 0.00 0.00 0.00 0.00 0.00 0.00 0.00 0.00 0.00 0.00 0.00 0.00 0.00 0.00 0.00 0.00 0.00
0.12 0.08 0.03 0.00 0.06 0.13 0.04 0.11 0.07 0.08 0.04 0.00 0.00 0.00 0.00 0.00 0.00 0.00 0.00 0.00 0.00 0.00 0.00 0.00 0.00 0.00 0.00 0.00 0.00 0.00 0.00 0.00 0.00 0.00 0.00 0.00 0.00 0.00 0.00 0.00 0.00 0.00 0.00 0.00
0.17 0.11 0.05 0.01 0.04 0.11 0.10 0.11 0.05 0.01 0.02 0.00 0.00 0.00 0.00 0.00 0.00 0.00 0.00 0.00 0.00 0.00 0.00 0.00 0.00 0.00 0.00 0.00 0.00 0.00 0.00 0.00 0.00 0.00 0.00 0.00 0.00 0.00 0.00 0.00 0.00 0.00 0.00 0.00
0.22 0.13 0.06 0.02 0.03 0.12 0.13 0.14 0.02 0.00 0.00 0.00 0.00 0.01 0.00 0.00 0.00 0.00 0.00 0.00 0.00 0.00 0.00 0.00 0.00 0.00 0.00 0.00 0.00 0.00 0.00 0.00 0.00 0.00 0.00 0.00 0.00 0.00 0.00 0.00 0.00 0.00 0.00 0.00
0.22 0.13 0.07 0.03 0.04 0.15 0.18 0.08 0.01 0.00 0.00 0.00 0.00 0.00 0.00 0.00 0.00 0.00 0.00 0.00 0.00 0.00 0.00 0.00 0.00 0.00 0.00 0.00 0.00 0.00 0.00 0.00 0.00 0.00 0.00 0.00 0.00 0.00 0.00 0.00 0.00 0.00 0.00 0.00
0.21 0.10 0.06 0.02 0.03 0.10 0.05 0.02 0.01 0.02 0.00 0.00 0.00 0.00 0.00 0.00 0.00 0.00 0.00 0.00 0.00 0.00 0.00 0.00 0.00 0.00 0.00 0.00 0.00 0.00 0.00 0.00 0.00 0.00 0.00 0.00 0.00 0.00 0.00 0.00 0.00 0.00 0.00 0.00
0.17 0.08 0.05 0.02 0.02 0.06 0.01 0.00 0.02 0.04 0.01 0.00 0.00 0.00 0.00 0.00 0.00 0.00 0.00 0.00 0.00 0.00 0.00 0.00 0.00 0.00 0.00 0.00 0.00 0.00 0.00 0.00 0.00 0.00 0.00 0.00 0.00 0.00 0.00 0.00 0.00 0.00 0.00 0.00
0.14 0.06 0.03 0.02 0.02 0.08 0.02 0.01 0.02 0.04 0.04 0.01 0.00 0.00 0.00 0.00 0.00 0.00 0.00 0.00 0.00 0.00 0.00 0.00 0.00 0.00 0.00 0.00 0.00 0.00 0.00 0.00 0.00 0.00 0.00 0.00 0.00 0.00 0.00 0.00 0.00 0.00 0.00 0.00
0.11 0.04 0.02 0.02 0.02 0.07 0.02 0.01 0.05 0.02 0.03 0.04 0.01 0.00 0.00 0.00 0.00 0.00 0.00 0.00 0.00 0.00 0.00 0.00 0.00 0.00 0.00 0.00 0.00 0.00 0.00 0.00 0.00 0.00 0.00 0.00 0.00 0.00 0.00 0.00 0.00 0.00 0.00 0.00
0.08 0.02 0.01 0.02 0.02 0.04 0.02 0.04 0.06 0.04 0.03 0.03 0.05 0.03 0.00 0.00 0.00 0.00 0.00 0.00 0.00 0.00 0.00 0.00 0.00 0.00 0.00 0.00 0.00 0.00 0.00 0.00 0.00 0.00 0.00 0.00 0.00 0.00 0.00 0.00 0.00 0.00 0.00 0.00
0.04 0.01 0.01 0.03 0.02 0.03 0.02 0.05 0.13 0.06 0.03 0.01 0.03 0.03 0.02 0.00 0.00 0.00 0.00 0.00 0.00 0.00 0.00 0.00 0.00 0.00 0.00 0.00 0.00 0.00 0.00 0.00 0.00 0.00 0.00 0.00 0.00 0.00 0.00 0.00 0.00 0.00 0.00 0.00
0.04 0.03 0.02 0.03 0.02 0.03 0.01 0.02 0.08 0.15 0.05 0.01 0.02 0.04 0.04 0.01 0.00 0.00 0.00 0.00 0.00 0.00 0.00 0.00 0.00 0.00 0.00 0.00 0.00 0.00 0.00 0.01 0.00 0.00 0.00 0.00 0.00 0.00 0.00 0.00 0.00 0.00 0.00 0.00
0.07 0.05 0.04 0.03 0.02 0.02 0.01 0.01 0.02 0.16 0.08 0.00 0.00 0.01 0.00 0.01 0.01 0.00 0.00 0.00 0.00 0.00 0.01 0.00 0.00 0.00 0.00 0.00 0.00 0.00 0.00 0.00 0.00 0.00 0.00 0.00 0.00 0.00 0.00 0.00 0.00 0.00 0.00 0.00
0.04 0.03 0.04 0.01 0.00 0.01 0.00 0.00 0.01 0.05 0.13 0.03 0.00 0.01 0.02 0.00 0.00 0.00 0.01 0.00 0.00 0.00 0.00 0.00 0.00 0.00 0.00 0.00 0.00 0.00 0.00 0.00 0.00 0.00 0.01 0.00 0.00 0.00 0.00 0.00 0.00 0.00 0.00 0.00
0.02 0.01 0.02 0.01 0.00 0.00 0.01 0.05 0.11 0.10 0.09 0.06 0.00 0.00 0.03 0.03 0.03 0.03 0.02 0.02 0.00 0.00 0.00 0.00 0.00 0.00 0.00 0.00 0.00 0.00 0.00 0.00 0.00 0.00 0.00 0.00 0.00 0.00 0.00 0.00 0.00 0.00 0.00 0.00
0.03 0.02 0.06 0.02 0.00 0.01 0.07 0.09 0.09 0.07 0.10 0.07 0.00 0.00 0.02 0.09 0.06 0.03 0.02 0.02 0.01 0.00 0.00 0.00 0.00 0.00 0.00 0.00 0.00 0.00 0.00 0.00 0.00 0.00 0.00 0.00 0.00 0.00 0.00 0.00 0.00 0.00 0.00 0.00
0.01 0.02 0.02 0.00 0.01 0.16 0.16 0.01 0.01 0.03 0.03 0.03 0.00 0.00 0.01 0.04 0.06 0.06 0.06 0.03 0.02 0.03 0.01 0.00 0.00 0.00 0.00 0.00 0.00 0.00 0.00 0.00 0.00 0.00 0.00 0.00 0.00 0.00 0.00 0.00 0.00 0.00 0.00 0.00
0.02 0.03 0.06 0.08 0.09 0.32 0.10 0.01 0.07 0.07 0.04 0.05 0.00 0.01 0.01 0.01 0.01 0.03 0.13 0.29 0.16 0.02 0.01 0.01 0.01 0.00 0.00 0.00 0.00 0.00 0.00 0.00 0.00 0.00 0.00 0.00 0.00 0.00 0.00 0.00 0.00 0.00 0.00 0.00
0.06 0.13 0.15 0.07 0.07 0.09 0.08 0.07 0.09 0.02 0.02 0.01 0.00 0.00 0.00 0.00 0.00 0.00 0.02 0.07 0.19 0.05 0.00 0.02 0.00 0.00 0.00 0.00 0.00 0.00 0.00 0.00 0.00 0.00 0.00 0.00 0.00 0.00 0.00 0.00 0.00 0.00 0.00 0.00
0.11 0.09 0.02 0.01 0.04 0.05 0.13 0.06 0.02 0.01 0.00 0.00 0.00 0.00 0.00 0.00 0.00 0.00 0.00 0.00 0.03 0.03 0.00 0.00 0.00 0.00 0.00 0.00 0.00 0.00 0.00 0.00 0.00 0.00 0.00 0.00 0.00 0.00 0.00 0.00 0.00 0.00 0.00 0.00
0.02 0.02 0.01 0.04 0.05 0.16 0.26 0.05 0.01 0.00 0.00 0.00 0.00 0.00 0.00 0.00 0.00 0.00 0.03 0.02 0.01 0.04 0.03 0.01 0.01 0.00 0.00 0.00 0.01 0.02 0.03 0.04 0.02 0.01 0.00 0.00 0.00 0.00 0.00 0.01 0.01 0.03 0.05 0.07
0.12 0.08 0.02 0.09 0.17 0.15 0.11 0.01 0.00 0.00 0.00 0.00 0.00 0.00 0.00 0.00 0.00 0.04 0.10 0.12 0.07 0.02 0.07 0.08 0.02 0.00 0.00 0.01 0.05 0.08 0.11 0.14 0.14 0.12 0.10 0.06 0.04 0.04 0.06 0.10 0.16 0.18 0.18 0.14
0.14 0.07 0.05 0.12 0.07 0.03 0.03 0.01 0.00 0.00 0.00 0.01 0.00 0.02 0.04 0.02 0.05 0.12 0.20 0.13 0.08 0.04 0.03 0.02 0.02 0.05 0.03 0.02 0.01 0.01 0.02 0.04 0.07 0.06 0.08 0.11 0.14 0.18 0.21 0.19 0.14 0.08 0.03 0.00
0.26 0.23 0.15 0.07 0.08 0.06 0.05 0.03 0.03 0.05 0.02 0.01 0.01 0.05 0.08 0.07 0.07 0.06 0.03 0.03 0.03 0.01 0.00 0.00 0.00 0.01 0.01 0.01 0.01 0.01 0.03 0.05 0.09 0.13 0.14 0.15 0.15 0.11 0.09 0.05 0.01 0.00 0.00 0.00
0.17 0.11 0.12 0.10 0.11 0.10 0.08 0.08 0.09 0.08 0.06 0.05 0.07 0.09 0.14 0.07 0.02 0.02 0.01 0.01 0.02 0.02 0.02 0.02 0.02 0.02 0.04 0.04 0.05 0.09 0.13 0.14 0.12 0.09 0.06 0.06 0.04 0.01 0.00 0.00 0.00 0.00 0.00 0.00
0.03 0.07 0.10 0.09 0.06 0.05 0.04 0.04 0.04 0.03 0.01 0.02 0.02 0.03 0.08 0.09 0.05 0.05 0.05 0.05 0.06 0.06 0.05 0.04 0.04 0.05 0.06 0.07 0.09 0.10 0.11 0.10 0.05 0.04 0.04 0.02 0.00 0.00 0.00 0.00 0.00 0.00 0.00 0.00
MSLP
1002.01 1003.32 1004.92 1006.56 1008.14 1009.37 1010.63 1011.60 1011.83 1011.72 1012.57 1013.24 1012.00 1010.23 1009.69 1009.63 1009.08 1008.93 1008.73 1008.43 1008.31 1007.77 1007.48 1007.49 1007.54 1007.32 1006.88 1006.74 1007.26 1008.47 1008.93 1009.35 1010.08 1009.78 1009.67 1009.69 1009.71 1010.09 1010.88 1011.85 1012.66 1012.73 1011.98 1010.25
1000.08 1001.57 1003.18 1004.97 1006.80 1007.95 1008.98 1010.27 1011.16 1011.56 1011.38 1010.70 1009.93 1009.50 1009.51 1009.31 1009.16 1008.62 1008.69 1008.36 1008.27 1007.83 1007.49 1007.57 1007.15 1006.92 1006.53 1006.73 1007.03 1007.44 1008.52 1009.26 1009.86 1009.98 1010.18 1010.14 1010.07 1010.19 1010.57 1011.23 1011.88 1011.95 1011.51 1009.94
998.14 999.79 1001.52 1003.29 1005.29 1006.67 1008.18 1009.47 1010.17 1010.38 1011.20 1009.04 1008.69 1008.91 1008.38 1008.62 1008.84 1008.69 1008.41 1008.33 1008.35 1008.16 1007.48 1007.25 1007.02 1006.89 1006.66 1006.78 1006.95 1006.87 1007.39 1008.56 1008.99 1009.22 1009.23 1009.37 1009.80 1009.82 1010.15 1010.45 1011.27 1010.86 1010.32 1009.41
996.24 998.04 999.96 1001.78 1003.73 1005.41 1006.96 1007.76 1008.19 1007.41 1007.80 1008.58 1008.00 1007.76 1007.39 1007.86 1008.11 1008.37 1008.51 1008.46 1008.37 1008.13 1007.81 1007.37 1007.25 1007.07 1006.99 1007.31 1007.34 1007.52 1007.60 1008.46 1009.00 1008.86 1008.81 1009.04 1008.90 1009.08 1009.56 1009.76 1009.40 1009.85 1009.05 1008.98
994.64 996.31 998.42 1000.45 1002.61 1004.40 1006.11 1006.12 1006.79 1006.75 1006.33 1007.54 1008.43 1007.23 1006.54 1006.74 1007.62 1007.64 1007.77 1008.01 1008.09 1008.08 1007.98 1007.54 1007.61 1007.79 1007.48 1007.60 1008.22 1008.09 1008.11 1008.62 1009.10 1009.49 1009.31 1009.10 1009.10 1008.60 1009.02 1009.28 1009.27 1009.30 1008.98 1008.64
993.09 994.93 997.38 999.63 1001.69 1003.38 1003.80 1004.60 1004.58 1005.09 1005.45 1006.23 1007.26 1005.84 1006.11 1006.56 1007.42 1007.57 1007.42 1007.92 1008.04 1007.97 1007.64 1007.62 1007.45 1007.70 1007.75 1007.86 1008.02 1008.32 1008.76 1009.00 1009.76 1010.22 1009.96 1009.52 1009.21 1008.17 1008.32 1008.51 1008.39 1008.21 1008.42 1007.71
992.16 994.08 996.51 998.88 1000.40 1001.52 1002.59 1003.38 1004.50 1005.17 1004.96 1005.28 1005.18 1006.46 1006.25 1006.27 1006.62 1007.43 1007.68 1007.77 1007.88 1007.91 1007.62 1007.47 1007.59 1007.72 1007.67 1007.67 1007.67 1007.92 1008.75 1009.40 1010.14 1010.73 1010.65 1009.55 1007.84 1007.60 1007.60 1007.73 1007.36 1007.74 1007.94 1007.96
991.50 993.69 996.17 998.13 999.55 1001.47 1002.47 1003.30 1004.10 1004.38 1005.10 1005.00 1005.10 1005.87 1006.36 1006.44 1006.87 1007.63 1007.44 1007.60 1007.43 1007.64 1007.75 1008.13 1008.25 1008.16 1008.06 1007.86 1007.88 1008.16 1008.48 1009.46 1010.39 1010.78 1010.37 1008.96 1007.83 1007.33 1007.35 1007.18 1006.52 1006.78 1007.36 1008.02
991.38 993.61 995.85 997.78 999.46 1001.60 1002.37 1003.37 1004.07 1004.46 1005.17 1004.79 1004.69 1005.07 1005.80 1006.17 1006.66 1007.68 1007.60 1007.53 1007.55 1008.00 1008.85 1008.85 1008.74 1008.23 1008.02 1008.26 1008.44 1008.64 1009.04 1009.29 1009.76 1010.72 1009.83 1008.40 1006.98 1006.21 1006.38 1006.63 1006.43 1006.20 1006.87 1007.78
991.62 993.79 995.81 997.66 999.36 1001.33 1001.87 1003.58 1004.27 1004.80 1005.24 1005.02 1004.56 1004.59 1004.98 1006.11 1006.62 1007.29 1007.84 1007.81 1008.29 1008.55 1009.34 1009.76 1009.51 1008.74 1007.77 1008.36 1008.63 1008.75 1009.18 1009.62 1009.73 1009.76 1008.86 1007.57 1006.37 1006.06 1006.41 1006.86 1005.70 1005.71 1006.57 1007.49
992.41 994.36 996.12 997.70 999.22 1000.95 1001.76 1003.79 1004.64 1005.37 1005.61 1005.84 1005.07 1005.23 1005.04 1005.38 1006.03 1006.78 1007.57 1008.54 1008.42 1009.24 1009.62 1009.95 1009.50 1009.28 1008.24 1007.91 1007.97 1007.70 1007.84 1008.62 1009.08 1009.09 1008.23 1006.73 1005.83 1006.67 1006.20 1004.95 1005.42 1005.67 1006.67 1007.67
993.49 995.18 996.61 997.95 999.52 1000.91 1002.45 1004.11 1005.16 1005.73 1006.40 1005.96 1005.57 1005.64 1005.36 1005.16 1004.88 1005.80 1006.59 1006.54 1006.91 1007.66 1008.45 1009.05 1009.08 1009.16 1008.72 1007.61 1007.17 1007.18 1007.54 1006.53 1006.55 1006.84 1005.87 1005.03 1004.75 1004.38 1004.61 1005.04 1005.45 1006.01 1006.61 1007.88
994.49 995.84 997.14 998.60 1000.06 1001.56 1002.73 1004.18 1005.49 1006.43 1006.40 1006.32 1005.92 1005.53 1005.09 1005.21 1005.27 1005.08 1005.57 1006.25 1006.03 1006.54 1006.63 1007.58 1008.03 1007.91 1007.68 1007.38 1006.73 1006.43 1006.31 1005.96 1005.96 1006.15 1005.09 1005.03 1005.02 1005.11 1005.30 1005.54 1005.86 1006.24 1006.69 1007.79
995.52 996.79 998.20 999.40 1000.80 1002.34 1003.53 1004.66 1005.88 1006.68 1006.65 1006.26 1005.72 1004.88 1004.95 1004.35 1004.64 1004.83 1004.97 1005.13 1005.62 1006.04 1006.58 1007.44 1007.88 1007.70 1006.67 1006.64 1005.90 1005.65 1005.17 1005.47 1005.45 1005.28 1005.10 1005.42 1005.15 1005.12 1005.48 1006.23 1006.74 1007.16 1007.75 1008.42
996.90 998.08 999.31 1000.44 1001.62 1002.99 1004.18 1005.24 1006.17 1006.54 1007.24 1006.44 1005.45 1005.07 1004.30 1004.10 1004.44 1004.62 1004.79 1004.98 1005.56 1006.08 1007.07 1007.52 1007.45 1007.01 1006.86 1006.68 1006.06 1005.00 1004.48 1004.38 1004.67 1003.83 1003.48 1003.82 1003.99 1004.18 1005.20 1006.32 1007.31 1007.68 1007.96 1009.60
998.37 999.36 1000.32 1001.30 1002.48 1003.64 1004.81 1006.46 1006.76 1006.50 1007.06 1007.63 1006.43 1004.69 1004.11 1003.96 1004.02 1004.35 1004.68 1004.83 1005.33 1005.80 1006.20 1006.55 1006.29 1006.07 1006.13 1006.16 1004.96 1003.65 1003.21 1003.19 1003.11 1003.36 1003.70 1004.63 1005.04 1005.60 1006.21 1006.91 1007.63 1008.37 1008.66 1009.50
999.34 1000.16 1001.15 1002.29 1003.19 1003.89 1004.60 1005.09 1005.33 1005.97 1007.08 1007.26 1006.31 1005.40 1004.01 1003.48 1003.60 1003.73 1004.03 1004.45 1004.80 1005.30 1005.76 1006.02 1006.02 1005.99 1005.69 1005.66 1004.32 1003.48 1003.13 1003.16 1003.53 1003.92 1004.52 1005.63 1005.76 1006.20 1006.85 1007.42 1008.58 1009.22 1009.92 1010.85
1000.20 1001.06 1002.01 1002.73 1003.75 1004.56 1004.83 1004.15 1004.44 1005.19 1006.68 1006.30 1005.92 1004.92 1003.88 1002.67 1002.85 1003.42 1003.84 1004.08 1004.55 1004.88 1004.97 1005.58 1005.56 1006.05 1006.01 1004.83 1003.54 1003.35 1003.71 1004.09 1004.40 1004.68 1005.05 1005.20 1005.90 1006.95 1007.91 1008.15 1009.04 1010.15 1010.84 1011.70
1000.93 1002.20 1003.29 1004.37 1004.66 1005.16 1004.74 1003.99 1004.68 1005.28 1005.94 1005.74 1005.59 1004.75 1003.77 1002.98 1003.34 1003.60 1004.22 1004.35 1004.60 1004.68 1004.56 1005.00 1005.14 1005.48 1004.40 1003.06 1003.26 1003.58 1004.06 1004.30 1004.77 1005.59 1005.85 1006.24 1006.56 1007.55 1008.27 1008.83 1009.70 1010.15 1011.44 1012.44
1002.10 1003.01 1003.56 1004.07 1004.36 1003.94 1004.05 1005.11 1005.21 1004.83 1004.68 1005.06 1004.87 1004.69 1004.14 1003.60 1003.66 1004.18 1004.52 1004.60 1004.43 1003.59 1004.50 1004.51 1004.62 1003.64 1003.09 1003.28 1003.35 1003.61 1004.19 1004.75 1005.29 1006.07 1006.78 1006.93 1007.46 1008.59 1009.32 1009.95 1010.73 1011.50 1012.32 1013.32
1002.65 1002.77 1003.33 1003.38 1003.47 1004.17 1004.39 1004.44 1004.80 1005.17 1005.25 1004.68 1004.00 1003.72 1003.48 1003.71 1003.74 1004.14 1004.61 1004.90 1004.92 1004.70 1004.24 1004.18 1003.74 1003.17 1002.91 1002.98 1003.31 1003.99 1004.52 1005.04 1005.47 1005.67 1006.21 1006.89 1007.10 1008.05 1009.73 1011.13 1011.89 1012.54 1013.49 1014.64
1002.08 1001.97 1002.42 1003.13 1003.49 1004.07 1004.22 1004.17 1004.34 1004.16 1003.85 1003.81 1003.81 1003.74 1003.69 1004.18 1004.06 1004.44 1005.21 1005.16 1005.32 1004.61 1004.29 1004.36 1004.02 1004.25 1004.29 1004.18 1004.51 1005.00 1005.51 1005.74 1005.95 1006.30 1007.01 1008.16 1009.18 1009.11 1010.50 1011.64 1012.77 1013.99 1015.03 1016.04
1002.18 1002.04 1002.67 1003.08 1003.38 1003.47 1003.19 1003.39 1003.59 1003.43 1003.40 1003.54 1003.63 1003.98 1004.27 1004.71 1004.75 1005.30 1005.56 1005.55 1005.25 1004.81 1004.78 1004.86 1005.36 1005.28 1005.34 1005.40 1005.63 1005.97 1006.64 1007.20 1007.44 1007.26 1008.08 1008.93 1010.13 1011.22 1011.87 1012.75 1014.00 1014.87 1016.03 1017.05
1003.51 1003.29 1003.55 1003.66 1003.37 1003.40 1003.40 1003.43 1003.55 1003.85 1003.67 1003.69 1003.82 1004.18 1004.29 1004.80 1005.25 1005.64 1005.71 1005.58 1005.38 1005.48 1005.72 1006.32 1006.61 1006.73 1006.68 1006.40 1006.95 1007.04 1008.19 1008.57 1008.03 1009.12 1010.16 1010.81 1011.76 1012.98 1013.69 1013.91 1014.87 1015.84 1017.21 1018.48
1004.53 1004.05 1004.48 1004.66 1004.71 1004.52 1004.40 1004.26 1004.30 1004.34 1004.21 1004.16 1004.28 1004.56 1004.85 1005.35 1005.79 1005.88 1005.90 1006.11 1006.55 1007.06 1007.52 1007.72 1007.81 1007.96 1007.85 1008.06 1008.22 1008.71 1009.44 1010.08 1010.53 1011.03 1011.70 1012.76 1013.49 1014.18 1015.17 1016.06 1016.67 1017.53 1018.39 1019.45
1005.55 1006.58 1006.47 1006.27 1005.88 1006.01 1005.70 1005.54 1005.26 1005.06 1004.68 1004.47 1004.44 1004.92 1005.41 1006.01 1006.21 1006.74 1007.53 1007.77 1008.57 1008.94 1009.03 1008.98 1008.95 1009.05 1009.23 1009.52 1009.88 1010.44 1010.98 1011.46 1012.09 1012.87 1013.61 1014.40 1015.32 1015.95 1016.82 1017.67 1018.38 1019.15 1019.90 1020.71
1007.15 1008.36 1008.60 1008.05 1007.95 1007.94 1007.55 1006.91 1006.26 1005.50 1004.99 1005.32 1005.56 1006.48 1007.56 1007.52 1008.20 1009.49 1010.04 1010.60 1010.67 1010.40 1010.23 1010.24 1010.39 1010.72 1011.00 1011.26 1011.54 1012.00 1012.51 1013.05 1013.76 1014.50 1015.40 1016.16 1016.86 1017.37 1018.11 1019.15 1020.24 1020.83 1021.53 1021.98
Thickness
5423 5426 5423 5421 5417 5414 5409 5418 5430 5458 5456 5459 5486 5519 5542 5549 5562 5569 5576 5584 5590 5601 5606 5607 5611 5620 5636 5638 5635 5624 5623 5613 5599 5615 5622 5624 5626 5626 5620 5605 5599 5587 5589 5611
5418 5421 5420 5417 5412 5411 5410 5413 5423 5431 5444 5456 5496 5526 5529 5540 5550 5562 5568 5575 5584 5595 5601 5602 5610 5617 5633 5629 5631 5627 5618 5604 5598 5604 5610 5614 5617 5618 5615 5606 5597 5594 5595 5615
5413 5416 5417 5416 5410 5409 5406 5402 5409 5414 5427 5485 5505 5510 5527 5533 5544 5552 5561 5568 5574 5584 5595 5600 5607 5613 5626 5624 5628 5625 5628 5606 5610 5607 5615 5616 5607 5614 5614 5616 5598 5607 5606 5623
5411 5412 5413 5413 5407 5405 5401 5400 5406 5437 5444 5455 5496 5515 5527 5529 5536 5547 5551 5558 5565 5574 5581 5590 5596 5607 5614 5615 5613 5618 5619 5608 5605 5612 5614 5613 5618 5618 5610 5613 5622 5611 5626 5613
5408 5411 5408 5407 5403 5399 5394 5404 5410 5431 5464 5476 5466 5499 5518 5528 5533 5545 5549 5556 5561 5568 5572 5583 5583 5591 5603 5604 5602 5605 5608 5604 5601 5602 5603 5608 5607 5616 5610 5610 5610 5609 5612 5616
5407 5408 5404 5401 5395 5395 5405 5415 5427 5443 5466 5462 5461 5497 5515 5521 5526 5538 5547 5551 5554 5558 5573 5578 5587 5592 5597 5602 5605 5598 5596 5594 5592 5594 5593 5598 5590 5608 5610 5610 5614 5618 5606 5630
5405 5405 5401 5397 5398 5406 5414 5422 5421 5424 5438 5457 5477 5483 5506 5516 5527 5529 5537 5545 5546 5560 5571 5577 5580 5585 5588 5592 5597 5602 5592 5592 5584 5578 5569 5575 5621 5615 5616 5614 5619 5616 5615 5620
5404 5402 5397 5398 5401 5399 5406 5414 5417 5424 5412 5460 5474 5474 5488 5501 5513 5520 5530 5540 5546 5554 5560 5557 5565 5566 5579 5584 5590 5591 5596 5585 5573 5575 5581 5594 5608 5614 5612 5611 5629 5621 5619 5613
5402 5399 5397 5397 5397 5392 5403 5409 5409 5410 5420 5443 5469 5476 5480 5489 5500 5504 5519 5531 5537 5543 5532 5539 5549 5562 5572 5579 5579 5581 5579 5583 5587 5562 5577 5580 5611 5621 5617 5617 5608 5624 5618 5609
5401 5398 5396 5395 5394 5392 5404 5398 5399 5401 5413 5430 5455 5467 5478 5485 5485 5496 5506 5522 5523 5529 5511 5523 5536 5552 5573 5569 5567 5571 5575 5569 5581 5563 5580 5590 5609 5615 5613 5597 5620 5623 5618 5612
5396 5395 5394 5395 5395 5394 5399 5391 5390 5391 5400 5414 5437 5447 5467 5480 5487 5490 5498 5505 5510 5503 5511 5515 5529 5528 5555 5567 5572 5576 5585 5578 5573 5564 5569 5589 5611 5602 5604 5624 5615 5617 5610 5603
5391 5391 5392 5394 5393 5392 5390 5384 5380 5382 5388 5405 5421 5436 5455 5471 5492 5498 5498 5520 5519 5524 5522 5515 5522 5528 5524 5562 5574 5575 5575 5593 5594 5594 5603 5613 5615 5623 5618 5614 5614 5607 5606 5597
5388 5388 5390 5388 5387 5385 5385 5379 5374 5373 5383 5398 5416 5435 5452 5461 5472 5491 5502 5506 5524 5524 5532 5527 5534 5538 5543 5550 5562 5577 5578 5586 5590 5594 5606 5606 5606 5606 5603 5605 5604 5600 5599 5589
5383 5383 5382 5382 5379 5375 5374 5370 5367 5368 5381 5392 5416 5434 5448 5464 5475 5489 5504 5516 5517 5521 5523 5514 5513 5531 5548 5551 5570 5574 5583 5582 5582 5586 5595 5594 5600 5600 5597 5588 5582 5580 5577 5573
5376 5375 5373 5372 5371 5369 5366 5363 5362 5367 5373 5385 5414 5434 5451 5464 5475 5485 5498 5510 5515 5516 5511 5501 5520 5527 5536 5532 5548 5561 5579 5584 5582 5592 5607 5607 5612 5604 5589 5579 5572 5569 5565 5550
5366 5365 5365 5364 5363 5362 5358 5349 5354 5366 5369 5371 5400 5432 5452 5464 5475 5487 5496 5507 5512 5515 5516 5513 5523 5529 5539 5535 5558 5580 5587 5588 5594 5601 5597 5580 5574 5572 5572 5566 5558 5553 5552 5543
5359 5359 5357 5356 5355 5356 5355 5356 5370 5374 5369 5380 5408 5429 5451 5472 5483 5491 5501 5508 5513 5515 5515 5509 5524 5529 5535 5520 5560 5577 5579 5581 5574 5573 5573 5568 5567 5567 5555 5549 5540 5535 5530 5523
5352 5351 5349 5349 5345 5344 5350 5368 5377 5378 5376 5392 5405 5429 5453 5480 5489 5494 5498 5507 5509 5509 5516 5505 5520 5514 5513 5534 5560 5560 5557 5555 5556 5561 5558 5565 5553 5543 5535 5533 5527 5517 5512 5504
5343 5338 5337 5333 5340 5346 5361 5378 5380 5381 5389 5396 5411 5436 5463 5476 5482 5486 5492 5499 5502 5506 5510 5511 5518 5514 5537 5558 5555 5550 5545 5550 5546 5537 5539 5538 5539 5529 5523 5521 5514 5509 5497 5489
5336 5338 5339 5344 5354 5367 5373 5372 5379 5387 5397 5406 5424 5436 5458 5476 5477 5481 5486 5485 5498 5510 5508 5507 5511 5533 5535 5533 5536 5538 5534 5530 5529 5523 5518 5519 5517 5511 5505 5500 5494 5487 5480 5471
5342 5350 5351 5360 5368 5371 5375 5384 5386 5388 5402 5418 5440 5449 5470 5475 5491 5484 5476 5481 5481 5506 5512 5518 5527 5534 5536 5529 5529 5525 5523 5522 5523 5524 5520 5516 5514 5505 5491 5479 5473 5468 5460 5449
5363 5369 5375 5378 5381 5378 5386 5395 5397 5416 5430 5435 5448 5459 5471 5469 5478 5485 5475 5483 5478 5509 5496 5505 5524 5512 5506 5512 5510 5507 5507 5509 5509 5507 5501 5491 5484 5484 5472 5463 5454 5443 5432 5421
5375 5384 5385 5390 5389 5405 5419 5423 5427 5439 5438 5445 5454 5459 5459 5463 5468 5465 5470 5480 5488 5482 5496 5507 5491 5492 5491 5494 5495 5492 5487 5484 5481 5481 5476 5469 5462 5454 5448 5441 5429 5422 5411 5402
5380 5390 5398 5400 5408 5411 5417 5430 5436 5430 5438 5446 5452 5455 5465 5457 5464 5460 5477 5472 5471 5490 5497 5480 5471 5466 5470 5475 5472 5474 5463 5459 5465 5456 5447 5445 5438 5426 5419 5417 5408 5401 5389 5378
5388 5399 5411 5406 5405 5408 5412 5417 5426 5429 5436 5444 5454 5455 5460 5458 5461 5460 5467 5475 5469 5459 5460 5456 5451 5450 5454 5452 5451 5447 5441 5437 5435 5432 5426 5418 5412 5407 5398 5389 5384 5375 5366 5355
5389 5381 5389 5395 5407 5405 5412 5416 5426 5428 5436 5444 5452 5457 5464 5460 5457 5459 5449 5458 5446 5441 5435 5434 5434 5435 5434 5433 5430 5425 5421 5418 5414 5408 5403 5395 5387 5382 5374 5365 5358 5349 5341 5331
5391 5381 5376 5385 5392 5395 5401 5408 5418 5427 5442 5451 5449 5442 5434 5441 5441 5428 5420 5414 5411 5412 5415 5416 5415 5413 5412 5410 5408 5405 5402 5398 5392 5386 5379 5371 5365 5359 5352 5342 5331 5323 5313 5307